Flag for Germany Weather past 2 weeks in Crailsheim, Baden-Württemberg, Germany

Now
81 °F

Passing clouds.


Feels Like: 82 °F
Forecast: 68 / 93 °F
Wind: 7 mph from South

Location: Niederstetten

Current Time: Jul 3, 2015 at 9:58:57 AM

Latest Report: Jul 3, 2015 at 9:20 AM


Visibility: N/A

Pressure: 30.27 "Hg

Humidity: 54%

Dew point: 63 °F

Location of CrailsheimLocation

Historic Weather in Crailsheim — Graph

°F

Crailsheim temperature yesterday

Maximum temperature yesterday: 90 °F (at 4:20 PM)
Minimum temperature yesterday: 66 °F (at 5:20 AM)
Average temperature yesterday: 80 °F

Past Weeks' High & Low Weather Summary

 TemperatureHumidityPressure
High90 °F (Jul 2, 4:20 PM)100% (Jun 18, 1:20 PM)30.27 "Hg (Jun 18, 1:20 PM)
Low46 °F (Jun 23, 6:20 AM)23% (Jun 30, 6:20 PM)29.71 "Hg (Jun 23, 12:20 AM)
Average62 °F69%30.10 "Hg
* Reported Jun 18 8:20 AM — Jul 3 8:20 AM, Crailsheim, Weather by CustomWeather, © 2015

Note: Actual official high and low records may vary slightly from our data, if they occured in-between our weather recording intervals... More about our weather records

Advertising

Crailsheim weather history for previous 24 hours

 ConditionsComfort  
Time TempWeatherWind HumidityBarometerVisibility
8:20 AM
Fri, Jul 3
75 °FPassing clouds.6 mph61%30.27 "HgN/A
7:20 AM73 °FScattered clouds.7 mph61%30.24 "HgN/A
6:20 AM70 °FScattered clouds.8 mph64%30.24 "HgN/A
5:20 AM70 °FPassing clouds.7 mph64%30.21 "HgN/A
4:20 AM72 °FPassing clouds.7 mph57%30.21 "HgN/A
3:20 AM72 °FPassing clouds.6 mph57%30.21 "HgN/A
2:20 AM72 °FPassing clouds.6 mph57%30.24 "HgN/A
1:20 AM73 °FPassing clouds.6 mph53%30.21 "HgN/A
12:20 AM75 °FPassing clouds.8 mph54%30.21 "HgN/A
11:20 PM
Thu, Jul 2
77 °FPassing clouds.6 mph51%30.21 "HgN/A
10:20 PM79 °FPassing clouds.6 mph51%30.21 "HgN/A
9:20 PM81 °FPassing clouds.3 mph51%30.21 "HgN/A
8:20 PM84 °FWarm.6 mph45%30.18 "HgN/A
7:20 PM86 °FWarm.7 mph40%30.18 "HgN/A
6:20 PM88 °FPleasantly warm.8 mph38%30.18 "HgN/A
5:20 PM90 °FPassing clouds.8 mph33%30.18 "HgN/A
5:00 PM90 °FPassing clouds.6 mph33%30.18 "HgN/A
4:20 PM90 °FPassing clouds.8 mph33%30.18 "HgN/A
3:20 PM88 °FPleasantly warm.8 mph35%30.18 "HgN/A
2:20 PM88 °FPleasantly warm.5 mph35%30.18 "HgN/A
1:20 PM86 °FPleasantly warm.9 mph38%30.21 "HgN/A
12:20 PM84 °FPleasantly warm.12 mph40%30.21 "HgN/A
11:20 AM84 °FPleasantly warm.12 mph40%30.21 "HgN/A
10:20 AM81 °FWarm.12 mph45%30.21 "HgN/A
9:20 AM79 °FWarm.10 mph48%30.21 "HgN/A
Weather by CustomWeather, © 2015

See weather overviewHow to use our weather pages